Yeppoon Observation History
Time Wind Speed Temp Pressure Rel. Hum Rain
25/01:00pm ESE 13-17 kts 27.6°c 1008.9 hPa 67% 0.0mm
25/12:30pm ESE 13-16 kts 27.4°c 1009.3 hPa 71% 0.0mm
25/12:00pm ESE 11-14 kts 27.1°c 1009.7 hPa 74% 0.0mm
25/11:30am ESE 11-14 kts 27.4°c 1010.0 hPa 71% 0.0mm
25/11:00am ESE 12-14 kts 27.1°c 1010.5 hPa 74% 0.0mm
25/10:30am ESE 13-17 kts 26.5°c 1010.8 hPa 73% 0.0mm
25/10:00am ESE 13-18 kts 26.3°c 1010.8 hPa 79% 0.0mm
25/09:30am ESE 15-20 kts 26.7°c 1010.7 hPa 76% 0.0mm
25/09:00am ESE 11-15 kts 26.9°c 1010.6 hPa 79% 5.8mm
25/08:30am ESE 12-16 kts 25.7°c 1010.7 hPa 81% 5.8mm
25/08:00am SSE 5-7 kts 24.8°c 1010.3 hPa 91% 5.8mm
25/07:30am ESE 5-8 kts 23.6°c 1010.5 hPa 88% 5.6mm
25/07:00am ENE 15-19 kts 22.8°c 1010.7 hPa 90% 5.2mm
25/06:48am ENE 21-27 kts 23.3°c 1010.6 hPa 94% 5.0mm
25/06:30am E 28-36 kts 23.8°c 1010.1 hPa 91% 4.8mm
25/06:26am E 24-34 kts 23.9°c 1010.1 hPa 90% 4.8mm
25/06:21am E 20-30 kts 23.9°c 1010.1 hPa 85% 4.8mm
25/06:00am SSE 12-19 kts 24.2°c 1009.8 hPa 87% 4.8mm
25/05:30am ESE 11-16 kts 25.9°c 1009.3 hPa 79% 4.8mm
25/05:00am ESE 11-15 kts 25.7°c 1009.0 hPa 79% 4.8mm
25/04:30am SE 9-13 kts 25.5°c 1008.8 hPa 78% 4.8mm
25/04:00am ESE 10-15 kts 25.5°c 1008.6 hPa 79% 4.8mm
25/03:30am ESE 9-13 kts 25.4°c 1008.7 hPa 79% 4.8mm
25/03:00am ESE 11-15 kts 25.2°c 1008.9 hPa 80% 4.8mm
25/02:30am ESE 11-16 kts 25.0°c 1009.0 hPa 80% 4.8mm
25/02:00am ESE 9-14 kts 25.5°c 1008.7 hPa 79% 4.8mm
25/01:30am ESE 9-14 kts 25.6°c 1009.1 hPa 74% 4.8mm
25/01:00am ESE 9-14 kts 25.6°c 1009.6 hPa 73% 4.8mm
25/12:30am ESE 12-17 kts 25.8°c 1009.8 hPa 74% 4.8mm
25/12:00am ESE 11-15 kts 25.5°c 1010.1 hPa 78% 4.8mm
Time Wind Speed Temp Pressure Rel. Hum Rain
24/11:30pm ESE 11-15 kts 25.6°c 1010.6 hPa 75% 4.8mm
24/11:00pm E 11-15 kts 25.6°c 1011.1 hPa 75% 4.8mm
24/10:30pm E 12-14 kts 25.5°c 1011.1 hPa 77% 4.8mm
24/10:00pm ESE 10-15 kts 25.6°c 1011.4 hPa 76% 4.8mm
24/09:30pm ESE 11-14 kts 25.5°c 1011.4 hPa 77% 4.8mm
24/09:00pm ESE 10-14 kts 25.5°c 1011.2 hPa 78% 4.8mm
24/08:30pm E 17-19 kts 25.7°c 1010.8 hPa 81% 4.8mm
24/08:00pm E 18-22 kts 25.6°c 1010.8 hPa 83% 4.8mm
24/07:30pm ESE 11-17 kts 25.9°c 1010.7 hPa 78% 4.8mm
24/07:00pm ESE 7-10 kts 25.4°c 1010.5 hPa 79% 4.8mm
24/06:30pm SE 9-13 kts 25.5°c 1010.2 hPa 77% 4.8mm
24/06:00pm ESE 10-14 kts 25.6°c 1010.1 hPa 76% 4.8mm
24/05:30pm SE 11-16 kts 25.9°c 1010.0 hPa 71% 4.8mm
24/05:00pm SE 12-18 kts 26.1°c 1010.1 hPa 71% 4.8mm
24/04:30pm ESE 11-16 kts 25.8°c 1009.9 hPa 69% 4.6mm
24/04:00pm ESE 13-19 kts 25.2°c 1010.2 hPa 73% 4.6mm
24/03:30pm SE 11-17 kts 24.7°c 1010.1 hPa 79% 4.6mm
24/03:00pm SE 8-11 kts 24.4°c 1010.5 hPa 79% 4.6mm
24/02:30pm SE 7-11 kts 23.6°c 1010.8 hPa 82% 4.6mm
24/02:00pm SE 5-8 kts 23.7°c 1010.7 hPa 87% 4.6mm
24/01:30pm ESE 10-14 kts 23.3°c 1011.1 hPa 94% 4.6mm
24/01:00pm SE 13-20 kts 23.2°c 1011.9 hPa 91% 3.8mm
24/12:30pm SE 12-17 kts 23.7°c 1011.7 hPa 89% 2.8mm
24/12:00pm ESE 13-20 kts 24.6°c 1011.8 hPa 86% 2.8mm
24/11:30am ESE 14-21 kts 24.5°c 1012.2 hPa 84% 2.8mm
24/11:00am SE 11-16 kts 23.7°c 1012.2 hPa 92% 2.8mm
24/10:30am ESE 13-20 kts 25.2°c 1012.5 hPa 81% 0.0mm
24/10:00am ESE 12-17 kts 25.2°c 1012.5 hPa 81% 0.0mm
24/09:30am SE 11-16 kts 26.2°c 1012.3 hPa 75% 0.0mm
24/09:00am SSE 10-15 kts 25.7°c 1012.4 hPa 75% 3.6mm
24/08:30am SSE 7-11 kts 24.8°c 1012.5 hPa 85% 3.6mm
24/08:00am SSW 7-10 kts 22.9°c 1012.7 hPa 90% 3.6mm
24/07:30am SSW 7-11 kts 22.3°c 1012.5 hPa 90% 3.6mm
24/07:00am SSW 4-5 kts 22.3°c 1012.3 hPa 89% 3.6mm
24/06:30am S 7-10 kts 22.3°c 1011.9 hPa 91% 3.6mm
24/06:00am S 4-6 kts 21.9°c 1011.7 hPa 89% 3.6mm
24/05:35am SSE 10-22 kts 23.2°c 1011.6 hPa 80% 0.8mm
24/05:30am S 7-11 kts 23.6°c 1011.6 hPa 77% 0.0mm
24/05:00am ESE 11-15 kts 25.5°c 1011.1 hPa 69% 0.0mm
24/04:30am E 9-13 kts 25.6°c 1010.9 hPa 69% 0.0mm
24/04:00am ESE 10-15 kts 25.6°c 1010.7 hPa 67% 0.0mm
24/03:30am ESE 11-14 kts 25.5°c 1010.8 hPa 69% 0.0mm
24/03:00am E 12-16 kts 25.5°c 1011.0 hPa 66% 0.0mm
24/02:30am E 13-15 kts 25.7°c 1011.2 hPa 69% 0.0mm
24/02:00am ESE 12-17 kts 25.6°c 1011.7 hPa 66% 0.0mm
24/01:30am E 13-17 kts 25.6°c 1012.0 hPa 66% 0.0mm
24/01:00am E 13-16 kts 25.7°c 1012.3 hPa 64% 0.0mm
24/12:30am E 13-17 kts 25.8°c 1012.5 hPa 66% 0.0mm
24/12:00am ESE 13-17 kts 25.8°c 1013.0 hPa 64% 0.0mm
Time Wind Speed Temp Pressure Rel. Hum Rain
23/11:30pm E 15-18 kts 25.8°c 1013.1 hPa 66% 0.0mm
23/11:00pm E 13-18 kts 26.1°c 1013.2 hPa 65% 0.0mm
23/10:30pm E 17-20 kts 26.3°c 1013.4 hPa 66% 0.0mm
23/10:00pm E 16-20 kts 26.2°c 1013.4 hPa 65% 0.0mm
23/09:30pm E 15-19 kts 26.4°c 1013.4 hPa 69% 0.0mm
23/09:00pm E 15-19 kts 26.2°c 1013.2 hPa 68% 0.0mm
23/08:30pm E 15-17 kts 25.9°c 1012.9 hPa 74% 0.0mm
23/08:00pm E 16-20 kts 25.7°c 1012.7 hPa 75% 0.0mm
23/07:30pm E 16-20 kts 26.2°c 1012.3 hPa 77% 0.0mm
23/07:00pm E 17-22 kts 26.2°c 1011.9 hPa 76% 0.0mm
23/06:30pm E 18-23 kts 26.4°c 1011.9 hPa 71% 0.0mm
23/06:00pm E 15-19 kts 26.7°c 1011.6 hPa 69% 0.0mm
23/05:30pm E 15-19 kts 27.0°c 1011.4 hPa 66% 0.0mm
23/05:00pm E 15-18 kts 27.1°c 1010.9 hPa 62% 0.0mm
23/04:30pm E 15-18 kts 27.1°c 1010.8 hPa 62% 0.0mm
23/04:00pm E 15-17 kts 27.5°c 1010.9 hPa 67% 0.0mm
23/03:30pm ENE 14-18 kts 27.2°c 1010.9 hPa 64% 0.0mm
23/03:00pm ENE 14-17 kts 27.5°c 1011.2 hPa 64% 0.0mm
23/02:30pm ESE 13-16 kts 28.3°c 1011.3 hPa 57% 0.0mm
23/02:00pm E 13-17 kts 28.1°c 1011.4 hPa 63% 0.0mm
23/01:30pm ESE 13-17 kts 28.4°c 1011.6 hPa 61% 0.0mm
23/01:00pm ESE 13-16 kts 28.0°c 1011.8 hPa 60% 0.0mm
23/12:30pm ESE 12-18 kts 28.7°c 1011.8 hPa 58% 0.0mm
23/12:00pm ESE 12-17 kts 28.5°c 1012.1 hPa 60% 0.0mm
23/11:30am ESE 13-17 kts 27.7°c 1012.2 hPa 62% 0.0mm
23/11:00am ESE 12-16 kts 27.8°c 1012.5 hPa 58% 0.0mm
23/10:30am ESE 13-16 kts 28.2°c 1012.8 hPa 60% 0.0mm
23/10:00am ESE 12-16 kts 28.1°c 1012.9 hPa 58% 0.0mm
23/09:30am ESE 11-16 kts 27.8°c 1013.0 hPa 59% 0.0mm
23/09:00am ESE 11-15 kts 27.6°c 1012.7 hPa 59% 0.0mm
23/08:30am ESE 10-15 kts 27.0°c 1012.7 hPa 62% 0.0mm
23/08:00am ESE 9-14 kts 26.7°c 1012.5 hPa 67% 0.0mm
23/07:30am ESE 10-15 kts 27.1°c 1012.5 hPa 62% 0.0mm
23/07:00am ESE 11-15 kts 26.1°c 1012.3 hPa 68% 0.0mm
23/06:30am ESE 10-13 kts 26.3°c 1011.9 hPa 68% 0.0mm
23/06:00am ESE 11-14 kts 25.9°c 1011.6 hPa 68% 0.0mm
23/05:30am ESE 11-14 kts 25.9°c 1011.1 hPa 69% 0.0mm
23/05:00am E 12-15 kts 25.8°c 1011.0 hPa 70% 0.0mm
23/04:30am E 12-15 kts 25.7°c 1010.6 hPa 73% 0.0mm
23/04:00am ESE 11-15 kts 25.7°c 1010.4 hPa 72% 0.0mm
23/03:30am E 11-14 kts 25.8°c 1010.4 hPa 73% 0.0mm
23/03:00am E 10-13 kts 25.8°c 1010.6 hPa 71% 0.0mm
23/02:30am ESE 10-14 kts 25.7°c 1010.6 hPa 72% 0.0mm
23/02:00am E 12-15 kts 25.7°c 1010.8 hPa 67% 0.0mm
23/01:30am ESE 10-14 kts 25.7°c 1011.1 hPa 70% 0.0mm
23/01:00am E 10-13 kts 25.6°c 1011.4 hPa 68% 0.0mm
23/12:30am E 12-15 kts 25.7°c 1011.5 hPa 67% 0.0mm
23/12:00am ESE 11-14 kts 25.8°c 1012.1 hPa 67% 0.0mm